TimeEDT,TemperatureF,Dew PointF,Humidity,Sea Level PressureIn,VisibilityMPH,Wind Direction,Wind SpeedMPH,Gust SpeedMPH,PrecipitationIn,Events,Conditions,WindDirDegrees,DateUTC
12:56 AM,51.1,48.9,92,29.97,10.0,North,8.1,-,N/A,,Overcast,350,2011-10-29 04:56:00
1:56 AM,52.0,48.9,89,29.94,10.0,North,4.6,-,N/A,,Mostly Cloudy,360,2011-10-29 05:56:00
2:56 AM,52.0,50.0,93,29.90,10.0,North,4.6,-,N/A,,Overcast,350,2011-10-29 06:56:00
3:56 AM,52.0,51.1,97,29.89,3.0,NNW,3.5,-,0.04,Rain,Rain,330,2011-10-29 07:56:00
4:56 AM,52.0,51.1,97,29.87,9.0,NW,3.5,-,0.01,,Overcast,310,2011-10-29 08:56:00
5:56 AM,52.0,51.1,97,29.86,8.0,West,6.9,-,0.00,Rain,Light Rain,280,2011-10-29 09:56:00
6:56 AM,52.0,51.1,97,29.87,6.0,WNW,5.8,-,0.00,,Overcast,290,2011-10-29 10:56:00
7:38 AM,51.8,50.0,94,29.85,5.0,NW,8.1,-,0.01,,Overcast,310,2011-10-29 11:38:00
7:56 AM,50.0,48.9,96,29.86,3.0,NW,10.4,-,0.01,,Overcast,310,2011-10-29 11:56:00
8:12 AM,50.0,48.2,94,29.86,2.5,WNW,11.5,-,N/A,,Overcast,300,2011-10-29 12:12:00
8:30 AM,50.0,48.2,94,29.86,1.8,NW,5.8,-,N/A,,Overcast,310,2011-10-29 12:30:00
8:46 AM,50.0,48.2,94,29.86,2.0,NW,8.1,-,N/A,,Overcast,310,2011-10-29 12:46:00
8:56 AM,50.0,48.9,96,29.87,3.0,NW,8.1,-,N/A,,Overcast,310,2011-10-29 12:56:00
9:56 AM,48.9,48.0,97,29.89,3.0,WNW,12.7,-,N/A,,Overcast,300,2011-10-29 13:56:00
10:56 AM,48.9,46.9,93,29.90,6.0,WNW,9.2,-,N/A,,Overcast,300,2011-10-29 14:56:00
11:56 AM,48.0,46.9,96,29.89,10.0,WNW,11.5,-,0.00,,Overcast,300,2011-10-29 15:56:00
12:08 PM,48.2,46.4,93,29.87,10.0,WNW,9.2,-,N/A,,Overcast,300,2011-10-29 16:08:00
12:42 PM,51.8,46.4,82,29.86,10.0,WNW,16.1,-,N/A,,Mostly Cloudy,300,2011-10-29 16:42:00
12:56 PM,54.0,48.0,80,29.87,10.0,WNW,16.1,21.9,N/A,,Mostly Cloudy,300,2011-10-29 16:56:00
1:16 PM,55.4,46.4,72,29.86,10.0,NW,20.7,-,N/A,,Scattered Clouds,320,2011-10-29 17:16:00
1:35 PM,51.8,44.6,76,29.86,10.0,WNW,20.7,31.1,N/A,,Mostly Cloudy,300,2011-10-29 17:35:00
1:52 PM,51.8,44.6,76,29.86,10.0,NW,18.4,27.6,N/A,,Overcast,310,2011-10-29 17:52:00
1:56 PM,51.1,44.1,77,29.87,10.0,WNW,18.4,26.5,N/A,,Overcast,300,2011-10-29 17:56:00
2:23 PM,51.8,42.8,71,29.87,10.0,NW,21.9,29.9,N/A,,Overcast,310,2011-10-29 18:23:00
2:56 PM,51.1,43.0,74,29.89,10.0,NW,20.7,29.9,N/A,,Overcast,310,2011-10-29 18:56:00
3:56 PM,48.9,39.9,71,29.91,10.0,NNW,23.0,34.5,N/A,,Overcast,330,2011-10-29 19:56:00
4:56 PM,48.9,39.0,69,29.94,10.0,NNW,20.7,28.8,N/A,,Overcast,330,2011-10-29 20:56:00
5:46 PM,50.0,39.2,66,29.95,10.0,NW,11.5,-,N/A,,Mostly Cloudy,320,2011-10-29 21:46:00
5:56 PM,50.0,39.9,68,29.96,10.0,NW,11.5,-,N/A,,Scattered Clouds,320,2011-10-29 21:56:00
6:56 PM,48.9,39.0,69,29.99,10.0,NNW,11.5,-,N/A,,Clear,330,2011-10-29 22:56:00
7:56 PM,46.9,37.9,71,30.01,10.0,NW,10.4,-,N/A,,Clear,320,2011-10-29 23:56:00
8:56 PM,46.9,37.0,68,30.04,10.0,NW,10.4,-,N/A,,Clear,320,2011-10-30 00:56:00
9:56 PM,46.0,37.0,71,30.07,10.0,NNW,9.2,-,N/A,,Clear,330,2011-10-30 01:56:00
10:56 PM,45.0,37.0,74,30.10,10.0,NNW,9.2,-,N/A,,Clear,340,2011-10-30 02:56:00
11:56 PM,42.1,37.0,82,30.12,10.0,NNW,9.2,-,N/A,,Clear,330,2011-10-30 03:56:00